sat.trackr.live / text

‹ back to catalog

GEESAT-4 01

NORAD 65119 · 2025-170A

PAYLOAD ACTIVE UNKNOWN

§ Identity

Operator
Country
PRC
Launch date
2025-08-08
Launch site
YSLA
Launch vehicle
Mass (kg)
RCS (m²)

External: N2YO · Heavens-Above · Gunter

§ Orbital elements

Epoch: 2026-05-25T04:50:02.759712Z

Period
97.04 min
Inclination
49.9890°
Eccentricity
0.0010168
Mean motion
14.83885901 rev/d
Perigee alt
610.0 km
Apogee alt
624.2 km
Semi-major
6,995.2 km
B*
2.0467e-4
RAAN
281.0548°
Arg perigee
320.6590°
Mean anomaly
39.3609°
Rev number
4,302

§ Raw data

GEESAT-4 011 65119U 25170A   26145.20142083  .00001490  00000+0  20467-3 0  99902 65119  49.9890 281.0548 0010168 320.6590  39.3609 14.83885901 43028

JSON: /api/v1/satellites/65119 · /tle

For live sub-satellite position, see the globe view (requires WebGL).

§ Visibility from observer

Set your observer location to see the next 7 days of passes ≥ 10°. The values pass through the URL so the page stays shareable.

No JS? Fill the form by hand. The geolocation button needs JavaScript.